CZ-6A DEB, 61453

Orbit data source: Space-Track

CZ-6A DEB, 61453 is space debris in LEO originally from a launch on Tue, 06 Aug 2024 UTC launched from the Taiyaun Space Center, China (TSC). Debris objects in space refer to the collection of defunct objects orbiting the Earth. Examples of debris include non-operational satellites, rocket bodies, and fragments generated from explosions, collisions, or faulty payload assembly.

Loading next visibility...
Identifier
61453, 2024-140ZK
Orbit
LEO
Country
Flag of CNCN / PRC
Related business
Manufacturer
SAST
Mission
Spacecraft
Bus & Motor
Unknown
Mass
Unknown
Launch date (UTC)
2024-08-06 (2 years ago)
Launch vehicle
Unknown
Launch site
Taiyaun Space Center, China (TSC)
Object type
Payload
Rocket body
Debris
Shape & HBR
Unknown shape, 0.1 m
Radar Cross Section
Small (<0.1 m²)

Expand to show TLE details & history
Last TLE update: 14 hours ago

TLE from 14 hours ago
0 CZ-6A DEB
1 61453U 24140ZK  26171.28445610  .00005454  00000-0  86534-3 0  9994
2 61453  89.0396 272.2306 0101414 219.6436 139.7338 14.68602228 96570
Epoch: 2026-06-20T06:49Z
TLE epoch observation values (Epoch: 2026-06-20T06:49:37.007Z)
Latitude
0.00005°
Longitude
-98.67488°
Altitude
723.474 km
Speed
7.464 km/s
True Right ascension
18h 08m 55s
True Declination
0° 00' 00"
Sunlit
Object was in full shadow at epoch
Visualization orbit readout
Latitude
Unknown
Longitude
Unknown
Altitude
Unknown
Speed
Unknown
Apparent Right ascension
Unknown
Apparent Declination
Unknown
Sunlit
N/A
Visualization observer readout
Local Sidereal Time
07:22:49
Azimuth
Unknown
Elevation
Unknown
Doppler factor
Unknown
Orbital elements
Apogee altitude
733.816 km
Perigee altitude
591.014 km
Semi-major axis
7,040.552 km
Eccentricity
0.01014
Inclination
89.0396°
RAAN
272.2306°
Arg. of periapsis
219.6436°
True anomaly
140.4777°
Mean anomaly
139.7338°
Eccentric anomaly
140.10647°
Mean motion
3.67395 °/min
Orbital period
97.99 mins
BSTAR
0.00086534
Loading maneuver chart data...
Computing Atmospheric mass density...
Loading historical data...
Loading historical data...
Loading historical data...
Loading historical data...
Loading historical data...
Loading historical data...
Loading historical data...

Documentation

Showing up to 5 results
|